Regional Weather Roundup
Issued by NWS Jackson, KY

Home | Current Version | Previous Version | Graphics & Text | Print | Product List | Glossary On
Versions: 1 2 3 4 5 6 7 8 9 10 11 12 13 14 15 16 17 18 19 20 21 22 23 24 25 26 27 28 29 30 31 32 33 34 35 36 37 38 39 40 41 42 43 44 45 46 47 48 49 50
193
ASUS43 KJKL 190810
RWRJKL

EAST KENTUCKY HOURLY WEATHER ROUNDUP
NATIONAL WEATHER SERVICE JACKSON KY
400 AM EDT SAT AUG 19 2017

NOTE: "FAIR" INDICATES FEW OR NO CLOUDS BELOW 12,000 FEET WITH
NO SIGNIFICANT WEATHER AND/OR OBSTRUCTIONS TO VISIBILITY.

* THESE REPORTS ARE NOT UNDER NWS QUALITY CONTROL AND MAY NOT
  REPORT WEATHER SUCH AS PRECIPITATION AND FOG.

KYZ079-080-083-085-087-088-110-112-115-119-120-190900
...EASTERN KENTUCKY...

CITY           SKY/WX    TMP DP  RH WIND       PRES   REMARKS
JACKSON        CLEAR     66  63  90 CALM      30.01R
LONDON         CLEAR     64  63  96 CALM      30.02R FOG
SOMERSET*      CLOUDY    63  63 100 CALM      30.02R FOG
MONTICELLO*    CLEAR     63  62  97 W13       30.03R FOG
WILLIAMSBURG*  SUNNY     63  63 100 CALM      30.02R
MIDDLESBORO*   FOG       63  63 100 CALM      30.03S VSB 1/4
HARLAN APT*    CLOUDY    64  63  94 CALM      30.04R VSB 1/2
PIKE CO APT*     N/A     66  66 100 CALM      30.02R
BIG SANDY APT* SUNNY     67  67 100 SW3       30.00S
MOREHEAD APT*  SUNNY     66  63  88 S5        29.99S
$$

KYZ035-036-041-042-044-050-067-078-099-190900
...CENTRAL KENTUCKY...

CITY           SKY/WX    TMP DP  RH WIND       PRES   REMARKS
MT STERLING*   CLEAR     64  63  94 W3        30.00R
FLEMING/MASON* CLEAR     65  64  94 W5        29.98S
DANVILLE*      PTCLDY    64  63  94 S6        29.99F
LEXINGTON      CLOUDY    67  63  87 S5        29.98S
FRANKFORT      CLOUDY    68  64  87 SW5       29.96S
LOUISVILLE     MOCLDY    74  66  76 SE5       29.93F
LEBANON*         N/A     68  64  88 S3        29.98S
GLASGOW*       CLOUDY   N/A N/A N/A CALM      29.98S
BOWLING GREEN  CLOUDY    72  68  87 S5        29.97F
$$

KYZ091>093-OHZ055-061-077-WVZ005-015-034-035-042-190900
...SOUTHERN OHIO/WEST VIRGINIA...

CITY           SKY/WX    TMP DP  RH WIND       PRES   REMARKS
COVINGTON      CLOUDY    67  66  97 S5        29.94F
COLUMBUS       PTCLDY    68  66  93 S3        29.92F
DAYTON         CLOUDY    66  62  87 W7        29.93F
WILMINGTON     CLOUDY    65  65 100 CALM      29.94F
HUNTINGTON     CLEAR     66  64  93 CALM      29.96S
CHARLESTON     PTCLDY    66  64  93 CALM      29.97R
PINEVILLE*     FOG       67  66  97 MISG      30.07S VSB 1/2
BECKLEY        CLEAR     64  62  93 SW5       30.04F
BLUEFIELD      CLEAR     62  60  93 W6        30.07F
LOGAN CO APT*  FOG       66  66 100 CALM      30.01R VSB<1/4
$$

VAZ002-007-008-TNZ017-027-036-066-071-190900
...SOUTHWEST VIRGINIA/EAST TENNESSEE...

CITY           SKY/WX    TMP DP  RH WIND       PRES   REMARKS
WISE*          CLEAR     63  63 100 CALM      30.08S
JONESVILLE*      N/A     63  63 100 CALM      30.05R
ABINGDON*      PTCLDY    65  65 100 CALM      30.05S
BRISTOL        PTCLDY    65  65 100 CALM      30.02F
MORRISTOWN*    SUNNY     66  66 100 CALM      30.00S
SEVIERVILLE*   SUNNY     64  64 100 CALM      30.00S
KNOXVILLE      CLEAR     68  65  90 CALM      30.00R
LAFOLLETTE*    PTSUNNY   64  63  94 CALM      30.05S FOG
OAK RIDGE      CLEAR     67  64  90 CALM      30.02R
CROSSVILLE     CLOUDY    62  61  96 CALM      30.06R
NASHVILLE      CLOUDY    70  67  90 S3        29.99S
$$

...KEY TO REMARKS...
VSB - VISIBILITY IN MILES
WCI - WIND CHILL INDEX
HX  - HEAT INDEX

$$




USA.gov is the U.S. government's official web portal to all federal, state and local government web resources and services.